Regional Weather Roundup
Issued by NWS

Home | Current Version | Previous Version | Graphics & Text | Print | Product List | Glossary On
Versions: 1 2 3 4 5 6 7 8 9 10 11 12 13 14 15 16 17 18 19 20 21 22 23 24 25 26 27 28 29 30 31 32 33 34 35 36 37 38 39 40 41 42 43 44 45 46 47 48 49 50
725
ASUS43 KBIS 221902
RWRND

NORTH DAKOTA REGIONAL WEATHER ROUNDUP
NATIONAL WEATHER SERVICE BISMARCK ND
100 PM CST THU FEB 22 2018

NOTE: "FAIR" INDICATES FEW OR NO CLOUDS BELOW 12,000 FEET WITH NO
SIGNIFICANT WEATHER AND/OR OBSTRUCTIONS TO VISIBILITY.


NDZ001>003-009>011-017-222000-
NORTHWEST NORTH DAKOTA

CITY           SKY/WX    TMP DP  RH WIND       PRES   REMARKS
WILLISTON      SUNNY      6  -4  63 SW6       30.26F WCI  -4
MINOT          SUNNY     18   2  49 NW3       30.24F
MINOT AFB      SUNNY     13   0  55 W6        30.24F WCI   4
$$

NDZ018>021-031>035-040>046-222000-
SOUTHWEST NORTH DAKOTA

CITY           SKY/WX    TMP DP  RH WIND       PRES   REMARKS
BISMARCK       SUNNY     13   4  67 S5        30.29F WCI   5
DICKINSON      SUNNY     14   1  56 NW9       30.15F WCI   2
GARRISON         N/A      9  -2  61 NW3       30.24F
HETTINGER ARPT SUNNY     10   2  69 CALM      30.17F
$$

NDZ004>008-012>016-024-026-027-054-222000-
NORTHEAST NORTH DAKOTA

CITY           SKY/WX    TMP DP  RH WIND       PRES   REMARKS
GRAND FORKS    FAIR      13   7  77 S12       30.40F WCI  -1
GRND FRKS AFB  FAIR      15   5  65 S8        30.38F WCI   4
DEVILS LAKE    FAIR      11   4  73 SW6       30.31F WCI   1
$$

NDZ022-023-025-028>030-036>039-047>053-222000-
SOUTHEAST NORTH DAKOTA

CITY           SKY/WX    TMP DP  RH WIND       PRES   REMARKS
FARGO          FAIR      20  12  71 S18       30.41F WCI   5
JAMESTOWN      SUNNY     20  11  68 S9        30.30F WCI   9
$$





USA.gov is the U.S. government's official web portal to all federal, state and local government web resources and services.